STARLINK-30858, 58358

Orbit data source: Space-Track

STARLINK-30858, 58358 is a payload satellite owned by SpaceX/Seattle (US) in LEO that was launched on Sat, 18 Nov 2023 UTC via an FALCON 9 launch vehicle from the Air Force Eastern Test Range (AFETR). Payload-class satellites include a variety of spacecraft equipped with specific instruments for various scientific and technological missions. These include communications satellites like Starlink; space stations such as the ISS; scientific satellites like the Hubble; Earth observation satellites from companies like Planet Labs, Umbra, and HawkEye 360; GPS; miniature CubeSats for education and research; and military/defense satellites.

Loading next visibility...
Identifier
58358, 2023-177H
Orbit
LEO
Country
Flag of USUS
Related business
Manufacturer
SpaceX/Seattle
Mission
Operational Commercial Communications
Bus & Motor
STARLINK V2M, Unknown motor
Mass
730 kg wet, ~700 kg dry
Launch date (UTC)
2023-11-18 (3 years ago)
Launch vehicle
FALCON 9
Launch site
Air Force Eastern Test Range (AFETR)
Object type
Payload
Rocket body
Debris
Shape & HBR
Box + 2 Pan, 17.7 m
Radar Cross Section
33.884 m², Large (>1 m²)

Expand to show TLE details & history
Last TLE update: 2 days ago

TLE from 2 days ago
0 STARLINK-30858
1 58358U 23177H   26171.23408753 -.00002115  00000-0 -67399-4 0  9997
2 58358  43.0011 131.2015 0000970 273.9710  86.1030 15.27555219143927
Epoch: 2026-06-20T05:37Z
TLE epoch observation values (Epoch: 2026-06-20T05:37:05.162Z)
Latitude
-0.00007°
Longitude
138.47827°
Altitude
482.854 km
Speed
7.626 km/s
True Right ascension
08h 44m 48s
True Declination
0° 00' 00"
Sunlit
Object was in daylight at epoch
Visualization orbit readout
Latitude
Unknown
Longitude
Unknown
Altitude
Unknown
Speed
Unknown
Apparent Right ascension
Unknown
Apparent Declination
Unknown
Sunlit
N/A
Visualization observer readout
Local Sidereal Time
21:27:51
Azimuth
Unknown
Elevation
Unknown
Doppler factor
Unknown
Orbital elements
Apogee altitude
485.734 km
Perigee altitude
484.403 km
Semi-major axis
6,863.205 km
Eccentricity
0.0001
Inclination
43.0011°
RAAN
131.2015°
Arg. of periapsis
273.971°
True anomaly
86.11409°
Mean anomaly
86.103°
Eccentric anomaly
86.10854°
Mean motion
3.81727 °/min
Orbital period
94.31 mins
BSTAR
-0.000067399
Loading maneuver chart data...
Computing Atmospheric mass density...
Loading historical data...
Loading historical data...
Loading historical data...
Loading historical data...
Loading historical data...
Loading historical data...
Loading historical data...

Documentation

Showing up to 5 results
|